Vorticity
2 3 4 5 5 4 3 6 5 5 6 4 6 2 6 4 7 11 7 5 -12 -13 -12 -16 -11 -11 -3 1 -3 0 4 2 0 -5 -4 -2 -5 2 1 -2 -1 -3 -3 -2 0 0 1 1 2 3 2 5 6 9 9 11 14 10 10 11 7 5 3 3 3 2 2 2 1 2 3 2 2 3 6 8 9 10 9 6 5 6 7 8 9 8 8 8 8 9 10 11 9 7 6 7 7
0 3 3 5 5 6 5 3 7 5 6 8 5 4 6 5 4 11 11 1 -0 2 -2 -3 -5 -5 -1 -3 0 5 4 3 2 -1 0 3 4 7 -0 -4 -2 -2 -0 -0 1 2 3 4 4 4 5 7 8 10 9 10 12 10 10 9 7 5 3 3 3 3 2 3 2 1 3 3 2 3 6 8 9 10 8 5 6 6 7 8 9 9 8 8 8 7 8 10 10 8 6 6 7
-1 0 1 3 4 6 8 5 6 2 6 6 5 6 1 10 11 7 18 13 13 19 10 8 9 12 11 3 2 1 4 6 6 7 7 10 8 -0 -4 -2 -3 -1 1 0 2 4 4 6 6 7 8 9 10 11 9 10 12 10 9 9 7 5 4 3 3 3 3 3 2 2 3 2 2 3 6 8 10 10 7 6 6 6 7 9 9 10 9 8 8 8 7 7 8 9 7 6 6
-2 -2 -1 1 2 3 6 8 7 4 5 2 4 6 2 10 7 4 19 18 14 13 3 2 7 15 17 9 3 -1 2 5 7 10 5 5 2 -4 -3 -3 -3 0 0 3 4 5 7 7 8 8 9 10 12 12 9 9 10 10 9 8 7 5 4 3 3 3 3 4 2 2 3 2 1 3 6 9 10 10 7 7 7 5 8 9 9 9 10 9 9 10 9 7 7 9 9 6 5
4 -1 -1 -2 -1 2 1 5 6 6 4 4 5 0 10 6 -9 9 18 9 8 5 -4 -11 -8 5 12 9 3 -1 4 6 5 7 2 -2 1 -1 -3 -1 -1 1 3 6 5 6 9 8 9 10 10 11 13 11 9 8 9 10 9 8 7 6 4 3 3 3 4 4 3 2 3 2 1 3 6 9 10 10 8 8 6 6 8 7 8 7 8 9 9 9 11 10 8 11 12 9 6
18 10 5 -1 -3 -1 -2 2 1 4 5 6 8 2 13 -3 -6 24 4 -11 -1 -1 0 -7 -3 5 4 11 12 4 4 8 4 6 1 -4 1 -2 -3 3 -0 2 5 5 7 9 9 10 11 11 12 12 12 10 8 8 9 9 9 8 6 6 5 3 3 4 5 4 4 3 3 2 1 3 7 9 10 10 9 8 6 6 7 6 6 6 7 7 8 8 10 10 9 10 9 7 5
18 20 18 10 3 0 -1 2 -2 2 5 5 7 6 11 -12 -2 26 -3 -9 -2 -0 12 4 5 9 1 4 14 12 6 6 4 4 -2 -4 -0 -4 -2 1 0 5 7 6 9 9 10 12 11 12 12 11 11 10 8 7 8 9 9 8 6 6 5 3 4 4 4 5 4 3 3 2 1 3 6 8 10 10 9 8 6 6 6 5 5 5 6 6 7 8 8 9 8 7 5 4 5
8 13 20 20 15 9 3 3 -1 -0 0 5 6 5 14 -3 -0 17 0 1 0 0 11 8 7 10 4 -3 5 14 11 6 3 1 -3 -0 1 -2 -0 -0 3 8 7 9 9 9 11 11 11 12 10 10 10 7 7 8 7 8 10 8 6 7 5 4 4 4 5 5 4 3 3 2 1 3 5 8 9 10 10 8 6 6 5 5 5 5 5 6 7 7 8 8 8 8 7 7 7
5 5 9 14 19 18 15 10 3 1 -2 1 4 7 13 -4 0 15 3 0 6 7 7 10 11 10 11 3 1 7 10 6 1 0 -4 -1 1 0 1 -0 4 9 9 10 10 11 11 10 11 11 9 10 8 6 8 8 7 9 10 7 7 6 5 4 4 5 5 5 4 4 4 2 1 3 5 7 10 10 9 8 6 6 5 5 5 5 5 6 6 6 7 7 8 9 9 10 9
5 5 5 6 9 14 17 18 14 8 1 -3 -2 7 7 -10 -3 11 5 2 9 16 12 8 6 6 10 9 5 3 7 4 -2 0 -1 -1 3 1 -1 2 8 11 11 11 11 10 10 11 10 10 10 9 6 6 8 8 7 9 10 7 7 6 5 4 4 5 5 5 4 4 4 2 1 2 5 7 10 11 9 8 7 6 5 5 4 4 5 5 6 5 6 6 6 8 9 9 9
6 5 6 5 4 7 10 16 20 18 13 5 -1 -3 -1 6 7 2 4 5 4 12 12 6 4 5 4 7 9 6 6 4 -2 -1 2 1 2 1 -0 7 11 12 13 10 11 10 10 10 10 10 9 8 5 6 8 9 8 9 9 7 6 6 6 5 4 6 6 5 4 5 4 2 1 2 5 8 10 11 9 7 6 6 5 4 3 4 6 5 6 6 6 6 6 6 7 8 8
9 7 6 6 5 5 5 7 12 18 22 17 15 4 -2 13 10 -3 2 4 5 9 9 6 6 6 4 4 4 3 3 2 -1 -3 -0 2 1 0 2 9 13 13 12 9 10 9 10 10 10 10 8 6 4 7 9 8 8 9 8 6 6 6 5 5 5 6 6 5 4 5 3 2 1 2 5 8 10 11 9 7 6 6 4 3 3 5 5 5 6 7 7 7 7 6 6 6 7
12 13 10 6 6 6 6 5 6 10 14 17 26 25 15 15 5 0 5 5 10 8 7 8 4 5 5 5 4 3 2 -2 -0 1 0 2 2 1 6 13 14 11 8 9 10 8 10 11 11 10 8 4 2 7 9 8 8 7 7 6 6 7 6 5 5 7 6 4 4 5 3 2 1 2 6 7 10 12 10 7 6 6 4 3 4 5 4 5 6 6 7 7 7 6 6 6 6
10 14 14 10 7 6 5 4 5 4 9 15 15 15 18 13 1 6 7 2 8 7 6 8 4 4 3 2 4 2 1 -2 -1 2 1 1 2 2 9 14 14 10 9 9 8 9 10 10 11 10 6 2 3 7 7 7 7 6 7 6 7 7 6 6 6 7 6 4 5 5 3 2 1 2 6 8 10 11 10 6 6 6 4 4 5 5 3 4 6 7 7 7 7 8 7 6 5
5 8 12 13 10 6 6 6 7 5 9 18 12 2 3 -3 -10 3 8 1 4 8 7 5 3 5 6 3 2 2 0 -1 -0 2 1 1 1 4 11 15 15 10 7 9 9 10 9 10 10 7 4 3 5 8 8 7 5 7 6 6 7 7 6 6 7 6 5 4 5 4 3 2 1 2 6 8 10 11 9 6 6 6 4 5 6 4 3 5 6 7 6 5 7 8 8 7 5
4 4 6 10 12 10 8 6 7 7 1 5 14 7 1 2 -1 5 14 6 -3 4 6 2 4 6 7 5 2 2 1 1 2 2 4 2 3 12 18 16 13 8 7 9 9 9 6 7 7 5 5 4 7 8 8 6 6 7 7 7 7 7 8 7 7 5 4 5 5 3 3 4 1 2 6 7 10 11 9 7 6 5 5 6 6 4 3 5 5 5 5 4 6 8 9 8 6
4 3 4 5 10 13 13 13 11 16 13 2 2 1 4 14 11 12 23 18 1 -1 4 2 6 7 5 5 2 2 3 4 3 2 4 2 5 17 20 13 8 7 8 8 8 7 5 5 6 7 7 6 9 8 6 7 7 7 7 8 7 8 7 6 6 4 5 5 4 4 3 4 2 3 6 7 9 11 9 7 5 4 6 6 6 3 3 4 3 4 3 3 6 8 9 8 8
4 3 5 4 6 9 15 24 12 4 15 17 9 2 6 7 3 7 14 22 17 3 1 4 6 5 5 4 1 2 3 3 2 2 -2 0 12 21 17 9 6 7 7 8 8 6 4 6 6 7 8 8 8 7 7 6 6 8 8 8 8 8 6 6 5 4 6 4 4 4 3 3 2 3 5 7 9 11 10 6 4 5 6 7 6 3 3 3 2 2 1 3 7 8 8 8 9
3 2 4 5 5 6 8 23 21 -2 -5 15 23 11 3 -1 -1 4 1 11 23 14 6 7 5 1 6 6 1 3 5 2 1 0 1 12 23 19 11 6 5 6 6 6 7 6 6 6 5 6 8 9 9 6 6 6 7 7 7 8 8 8 7 6 5 6 5 4 4 4 4 4 1 2 5 7 8 10 9 5 4 5 6 7 6 4 3 2 2 3 1 3 9 7 4 6 7
3 2 2 3 4 6 3 12 26 12 -4 2 9 5 -1 -2 3 7 7 9 14 17 12 12 11 -0 1 3 -2 1 3 3 2 2 10 21 20 10 6 6 5 5 5 6 6 6 7 6 5 6 7 8 8 6 5 6 6 6 7 8 9 9 8 7 6 6 5 4 4 4 4 3 1 2 5 7 8 9 8 5 4 4 6 6 6 5 3 3 1 2 2 3 9 6 2 4 4
5 3 1 4 4 5 5 7 11 3 -1 -8 -16 -4 3 1 6 7 11 11 7 14 13 16 21 9 6 8 5 5 4 5 8 11 16 17 13 8 6 5 5 6 5 7 7 7 7 7 7 5 7 8 6 5 6 6 6 7 7 7 9 9 8 8 6 5 5 4 4 5 4 2 1 2 4 6 7 8 7 5 4 3 5 5 5 6 4 3 2 3 2 3 8 6 1 2 3
6 5 3 5 2 3 6 11 12 2 3 4 -3 7 12 5 9 6 5 7 6 10 9 14 20 11 12 16 12 12 10 11 15 17 15 11 9 7 6 6 4 5 6 6 5 6 6 6 7 7 8 7 5 5 5 5 7 6 6 7 8 9 8 8 7 6 5 4 4 4 3 2 2 1 3 6 6 7 6 5 5 3 4 4 4 5 5 5 3 4 3 3 6 5 1 2 3
8 7 6 6 3 4 -1 -7 -2 -2 2 14 15 15 17 14 12 7 4 6 7 7 3 8 16 10 10 14 11 12 12 12 14 14 10 8 8 6 5 6 5 4 5 6 5 6 7 7 7 8 8 7 5 6 6 6 7 6 5 7 8 9 9 8 7 6 4 3 3 4 4 3 2 2 3 5 6 5 6 6 4 4 4 4 4 4 5 5 4 5 3 3 5 5 2 1 3
10 8 7 8 5 5 1 -8 -7 1 3 10 13 12 16 16 11 7 6 6 7 6 2 1 8 9 8 9 6 9 11 9 11 10 7 7 7 5 6 6 5 5 5 6 6 6 7 8 8 8 8 7 6 5 6 7 6 6 6 5 8 9 9 9 7 5 4 3 4 4 4 3 2 2 3 4 5 5 6 6 4 5 5 5 4 3 4 4 4 4 4 3 4 4 1 1 3
12 12 9 9 7 4 4 1 -1 2 3 4 6 6 8 11 13 15 12 11 10 7 5 0 -1 4 8 10 9 10 9 7 8 7 7 9 7 6 7 7 6 6 8 7 7 7 7 8 9 8 7 7 6 5 7 7 6 6 6 5 6 8 9 9 6 4 4 4 5 5 3 3 2 2 3 4 3 4 5 5 5 6 6 7 5 4 5 4 4 3 3 3 4 3 1 2 4
12 13 11 9 9 7 4 3 3 2 2 2 3 3 4 7 13 20 16 10 9 7 6 4 1 -0 5 13 12 8 8 10 9 7 9 9 8 9 7 7 8 7 7 7 6 6 7 8 8 8 9 8 5 6 8 6 6 6 5 5 5 7 9 7 6 5 5 5 5 4 4 3 3 3 3 3 3 3 4 4 6 8 7 8 7 7 7 7 5 4 3 3 3 4 3 4 5
10 12 12 10 9 9 7 5 4 3 3 1 2 4 5 5 7 15 19 13 10 9 6 5 4 2 5 12 8 3 8 13 8 6 10 10 9 9 8 8 8 8 8 7 6 7 7 7 8 9 8 8 6 7 8 5 6 7 5 4 4 7 7 6 7 6 6 6 5 4 4 3 3 3 3 3 4 2 3 4 5 7 7 7 8 7 7 8 6 5 4 3 4 5 5 5 5
6 8 11 10 8 6 5 5 5 4 5 4 3 3 3 5 5 8 18 18 11 9 9 5 4 5 7 7 3 2 7 6 8 13 14 10 9 7 6 9 8 7 7 6 5 6 8 7 7 9 8 7 7 8 6 5 6 6 6 5 4 5 6 7 7 7 7 6 5 5 4 4 3 3 3 4 4 4 3 3 4 5 6 7 8 7 8 8 7 7 6 4 5 6 6 5 4
6 7 7 10 12 8 6 6 7 6 5 5 4 3 2 5 5 6 16 21 13 8 6 4 3 4 5 5 3 4 8 5 7 17 17 9 7 7 7 8 8 6 6 6 6 7 8 8 6 7 7 6 7 8 6 5 6 6 7 6 5 5 5 8 8 7 7 6 5 5 4 4 4 4 5 4 5 6 4 3 3 4 5 6 7 8 9 9 8 7 7 6 6 6 6 6 5
5 5 4 9 13 14 13 10 9 9 8 7 5 3 2 3 6 5 12 16 12 9 7 6 8 6 3 7 6 2 4 8 10 12 14 10 5 5 7 8 7 6 7 6 6 8 7 6 7 5 6 7 7 7 6 5 5 5 6 6 6 5 6 9 9 8 8 7 5 5 5 5 5 5 5 5 4 5 4 4 4 4 4 5 6 7 8 9 9 8 8 7 6 6 6 6 6
3 4 3 6 10 14 17 12 10 10 8 8 7 6 4 4 5 4 12 14 8 14 15 8 9 9 6 7 11 11 6 5 10 10 7 8 7 4 6 7 6 5 7 7 6 7 6 5 6 5 5 7 7 7 6 6 5 6 7 8 6 6 7 8 8 9 8 7 6 6 6 5 5 5 5 6 5 4 5 5 3 4 4 4 6 6 8 9 9 9 9 8 7 6 6 6 6
2 3 2 4 6 12 15 12 12 12 11 9 7 8 6 4 4 3 10 11 7 14 16 9 7 7 7 5 5 10 11 7 8 8 5 7 6 5 5 4 5 5 4 5 6 5 5 5 5 5 6 7 7 7 7 6 5 7 8 7 8 7 8 8 8 9 8 7 7 6 6 6 5 5 5 5 5 6 6 4 3 3 3 5 6 6 7 9 9 10 10 9 8 7 7 6 4
3 2 3 4 4 7 12 11 12 12 11 9 7 8 6 5 6 7 9 6 6 15 16 12 10 5 4 9 10 10 10 8 7 6 5 6 6 4 5 4 4 5 5 4 6 7 5 4 4 5 6 7 7 7 6 7 7 8 8 7 8 9 8 9 9 8 9 9 7 7 6 6 5 5 5 5 5 6 4 4 3 2 4 4 6 7 7 8 9 10 11 11 10 8 7 6 4
6 6 4 3 3 5 9 11 13 14 12 12 9 9 8 5 5 9 16 12 4 10 11 7 12 12 7 11 18 18 13 6 5 9 7 7 8 4 3 6 5 3 3 3 5 7 4 4 5 5 6 8 8 7 6 6 6 6 7 7 8 10 11 10 9 8 9 9 7 7 6 6 6 5 6 6 5 5 5 3 3 2 3 3 4 5 5 7 8 9 11 12 11 10 8 7 5
7 8 7 5 5 4 5 10 17 16 14 14 10 10 10 9 10 12 20 18 9 12 9 1 9 10 8 18 17 6 6 6 4 10 12 7 3 3 5 5 4 4 3 4 7 7 5 4 5 6 7 7 6 5 5 5 7 8 11 14 13 11 10 9 9 10 9 7 7 7 7 6 5 5 6 6 5 5 5 4 3 2 1 2 3 2 3 5 7 8 10 13 12 11 10 7 6
9 10 10 7 7 8 7 8 13 13 13 13 12 12 10 11 14 10 10 8 6 18 18 8 8 6 12 28 21 4 3 7 10 13 12 8 2 3 6 1 2 5 4 6 8 6 5 6 6 6 6 8 8 7 8 8 7 10 16 19 15 11 10 8 9 11 8 7 8 7 6 5 5 6 5 5 6 5 5 4 2 1 1 2 1 1 2 2 5 8 8 12 13 12 11 8 6
9 11 15 16 10 8 9 6 5 7 10 10 11 14 11 15 14 0 4 10 4 10 17 15 11 9 14 8 -0 9 14 9 10 11 7 7 6 4 2 1 2 4 5 7 7 7 7 6 6 8 9 10 10 10 10 9 7 11 18 18 14 11 9 6 5 8 9 8 8 7 5 5 5 5 6 6 6 5 5 4 2 2 1 1 2 2 2 2 5 7 7 10 13 13 11 9 7
9 5 7 19 21 12 9 15 12 4 8 11 12 14 11 18 15 -8 0 19 16 11 10 16 19 15 15 5 1 13 16 8 6 7 9 9 7 9 7 4 2 1 4 7 5 5 6 7 8 9 11 11 10 10 9 10 11 10 9 9 9 7 10 15 11 6 8 9 7 7 5 5 5 5 7 6 5 5 5 5 3 2 2 1 3 2 1 3 5 7 7 7 10 12 12 10 7
10 7 -2 2 20 24 12 16 17 5 11 14 9 13 11 16 16 -5 -8 1 4 5 -1 2 11 14 16 14 13 12 4 5 8 7 10 11 8 8 3 2 10 12 9 9 9 8 6 8 10 7 8 10 8 6 6 6 7 9 12 12 10 10 13 20 18 8 8 9 7 7 5 5 5 6 6 6 5 6 5 5 4 2 3 2 3 3 3 4 5 6 7 6 8 10 11 11 8
5 9 4 -9 6 28 13 5 10 1 6 6 -2 13 17 12 15 4 -8 -8 -7 -4 -4 -4 -1 3 10 10 8 8 5 8 13 9 4 6 11 12 4 2 13 15 4 2 6 6 5 7 7 6 6 7 7 7 9 7 4 9 16 12 12 16 11 9 12 10 8 10 7 5 5 5 6 6 6 6 6 6 6 5 4 3 4 4 3 4 4 3 4 4 6 6 7 9 11 11 9
5 5 10 -2 -1 20 14 4 11 6 10 11 -4 6 20 13 14 10 -5 -5 1 0 0 2 3 5 9 9 6 8 12 13 16 16 6 -0 4 9 9 9 14 14 3 -1 3 4 7 10 6 5 6 5 7 6 5 7 5 5 4 4 10 16 15 11 12 12 9 9 6 4 6 6 7 8 6 7 6 6 6 4 4 4 4 4 4 4 4 3 3 4 5 6 6 8 10 9 9
7 4 8 2 -7 9 18 12 17 12 10 19 3 -7 8 12 10 10 4 1 1 2 4 2 4 10 8 5 8 12 11 7 14 22 12 3 13 14 4 4 8 11 9 3 4 4 1 4 5 5 7 6 5 4 2 3 6 4 2 6 10 9 12 7 -1 4 9 7 6 5 7 8 8 8 6 7 7 5 6 4 4 4 4 5 5 4 5 4 5 5 5 6 7 7 8 9 8
8 6 7 5 -10 -1 18 9 6 6 2 20 25 6 5 16 19 13 8 6 2 3 10 9 4 4 4 6 13 15 8 9 25 34 14 -2 16 24 10 9 9 4 10 9 8 14 10 7 6 4 6 6 7 9 8 7 9 9 5 4 11 15 12 -2 -8 5 10 6 7 7 7 8 7 7 6 6 6 5 5 5 4 4 4 5 5 5 5 5 5 5 5 6 7 7 8 9 8
9 4 5 9 -11 -9 15 8 -3 -1 3 26 41 28 9 6 19 21 13 7 4 7 10 9 5 -0 1 9 12 10 9 18 23 13 -1 -12 4 23 15 12 15 3 3 8 8 10 4 3 6 3 2 5 9 11 12 12 11 12 11 4 8 14 9 -1 2 10 9 6 9 8 7 8 6 6 6 5 5 5 5 5 4 4 5 6 6 6 6 7 7 6 6 7 7 8 8 8 8
10 6 9 14 -12 -19 4 10 9 0 -7 13 32 35 16 -9 -2 21 30 20 -1 1 11 8 7 4 2 6 10 13 13 19 18 4 3 0 2 20 14 1 10 13 8 6 4 0 -7 -1 11 9 1 3 9 15 17 18 16 15 17 11 4 7 11 9 8 9 9 9 8 7 7 6 6 6 6 6 6 6 5 5 5 5 7 8 8 8 7 8 7 6 7 7 7 8 7 8 7
10 3 15 32 4 -16 -8 -6 8 13 -1 -2 8 27 26 1 -8 -2 17 33 16 -0 1 4 7 4 4 5 10 20 16 12 17 13 13 10 -2 6 14 5 6 13 12 1 -1 9 8 5 13 14 7 6 9 15 15 13 16 15 16 18 7 4 15 16 9 9 10 9 7 8 7 5 6 6 5 6 5 5 5 5 6 7 8 8 7 7 7 7 7 7 8 7 7 7 7 8 7
18 -7 1 41 34 7 3 -11 -11 12 19 0 -12 7 28 21 2 -15 -10 18 26 13 4 5 7 6 7 3 2 12 13 11 15 10 10 16 9 4 9 14 8 -0 7 12 5 3 0 -2 7 13 12 14 9 7 7 3 5 6 14 21 8 8 26 19 7 10 9 8 9 7 6 5 6 6 5 5 4 4 4 4 6 6 6 6 6 7 7 8 8 8 8 8 7 7 7 7 8
28 -5 -22 12 40 27 13 -1 -19 -17 -4 -1 -9 -7 11 27 17 -5 -10 -2 12 22 22 20 14 11 9 -3 -2 10 8 9 13 8 9 13 13 9 2 8 9 -5 13 49 35 2 -1 9 14 15 17 21 11 2 5 7 10 13 15 13 6 20 34 12 1 12 10 8 8 4 5 6 5 5 3 3 3 3 4 5 6 6 6 7 8 9 9 9 9 9 9 9 8 7 7 7 7
17 7 -18 -23 14 34 21 10 -1 -13 -15 -0 17 7 -3 18 29 17 3 -6 -0 6 10 25 27 17 12 -1 1 10 4 8 11 6 11 12 10 13 2 -0 13 8 14 37 19 -10 6 19 11 14 21 17 8 7 13 20 25 29 30 28 22 26 20 -2 -1 13 9 5 6 4 6 5 3 3 2 3 4 4 6 6 6 7 7 8 10 11 11 10 10 10 9 9 8 8 7 7 7
13 11 5 -18 -4 26 24 11 5 7 3 -7 8 19 1 -1 16 31 27 -2 -12 -2 1 15 26 18 13 8 5 7 6 12 16 11 13 11 7 11 7 -1 9 16 14 12 -0 -9 8 16 9 16 21 15 13 13 11 13 13 20 40 42 24 18 12 -3 1 11 8 5 5 4 5 3 2 3 3 4 5 5 6 6 6 8 8 10 11 11 11 10 9 10 9 8 8 8 8 8 7
18 12 16 -1 -12 9 24 18 8 15 23 2 -6 11 13 -1 -13 5 46 29 -10 4 9 -7 12 28 15 8 10 12 11 8 9 11 9 8 6 8 9 0 -6 3 11 13 16 14 13 14 11 12 17 16 13 4 -2 5 5 10 32 28 10 15 10 -10 -1 13 9 4 5 4 4 2 2 3 5 6 6 6 6 6 7 8 9 9 9 8 8 7 7 8 8 8 8 9 9 8 8
22 13 11 -5 -25 -6 27 29 14 13 23 15 -0 -5 2 17 -2 -21 31 45 -10 3 30 6 19 35 8 5 15 8 7 5 5 8 4 4 7 5 8 6 -0 5 12 11 16 18 16 19 13 10 17 10 -2 -5 -1 9 11 14 26 17 6 14 -4 -21 1 15 6 4 6 3 2 2 3 5 6 6 6 6 6 7 7 7 7 6 6 6 6 7 7 8 7 8 9 9 9 9 8
32 15 3 9 -6 -9 21 32 16 9 11 12 13 3 -8 11 13 -20 -5 15 -17 -2 33 17 19 26 5 6 10 1 5 3 2 9 10 8 8 8 11 10 5 6 8 8 9 10 16 24 14 6 15 9 -2 2 2 3 14 26 30 10 -6 -2 -8 -7 11 10 3 6 4 1 2 3 4 6 7 6 6 6 6 6 6 5 5 5 5 6 7 8 9 9 10 10 10 10 9 9 8
39 32 8 23 17 -15 -6 21 24 17 7 5 17 21 6 5 18 9 2 9 -1 -4 -4 -19 -6 20 24 18 2 -3 9 5 -0 2 1 6 11 13 12 8 5 6 8 9 8 8 14 24 16 1 5 9 9 10 2 2 20 29 26 10 -4 -0 6 11 13 7 6 6 2 3 3 3 5 7 7 6 5 5 5 5 4 4 5 5 6 6 7 9 9 11 11 10 10 10 9 9 9
42 41 11 12 18 -7 -15 -2 13 24 16 5 9 16 14 7 12 17 9 5 5 7 4 -12 -23 -16 3 17 12 8 11 11 12 8 1 7 13 12 12 12 10 7 8 8 6 7 11 16 16 8 8 14 16 13 7 13 24 19 12 9 6 8 11 13 12 8 7 5 3 4 2 4 8 7 7 6 4 4 4 4 4 4 6 6 7 9 9 10 10 11 11 10 10 10 10 10 10
25 22 8 6 23 14 -2 -6 2 26 31 14 6 4 8 9 3 4 11 8 -7 -9 11 19 2 -11 -9 4 10 7 2 2 6 9 10 8 3 5 10 13 14 9 7 9 8 8 8 8 10 10 10 12 10 8 8 14 16 6 3 7 9 12 15 13 11 7 6 5 4 3 4 7 8 6 7 4 3 4 3 4 5 5 7 8 10 11 11 12 11 10 10 9 10 10 11 11 11
-17 5 13 6 21 12 -2 -2 -3 16 31 26 18 0 -5 12 9 -10 -1 17 4 -21 -17 -3 2 4 1 -5 -5 -3 -4 -1 1 2 4 2 2 10 13 10 12 11 8 9 9 7 5 4 6 7 11 12 10 9 9 9 5 -0 4 10 13 17 16 10 8 7 6 5 4 5 7 8 8 7 6 4 4 4 3 4 5 6 8 9 10 11 10 10 9 8 8 9 10 11 12 12 12
-18 17 26 17 22 11 6 7 -7 1 16 26 42 24 -5 11 32 18 2 8 18 11 1 -2 -2 6 13 7 2 7 10 11 12 8 3 4 6 10 14 12 11 11 11 11 11 8 6 5 5 6 11 13 11 9 9 8 7 8 13 17 19 20 15 10 8 6 5 5 5 7 8 9 9 7 5 5 5 4 4 5 6 7 9 8 8 8 8 7 6 5 7 9 10 11 11 12 12
Height
5851 5853 5854 5855 5856 5858 5858 5858 5859 5859 5859 5859 5862 5864 5867 5872 5872 5874 5878 5877 5875 5874 5873 5873 5870 5869 5873 5876 5878 5877 5874 5876 5876 5876 5875 5875 5875 5875 5877 5879 5878 5877 5876 5876 5876 5876 5875 5874 5873 5873 5872 5872 5871 5871 5870 5869 5868 5868 5868 5868 5867 5867 5867 5866 5866 5865 5864 5863 5863 5862 5861 5860 5859 5857 5856 5855 5854 5852 5851 5850 5849 5847 5846 5845 5844 5844 5843 5843 5842 5841 5841 5840 5839 5839 5838 5838 5837
5848 5850 5851 5852 5853 5855 5855 5855 5855 5856 5857 5857 5860 5863 5866 5870 5871 5873 5875 5875 5874 5875 5872 5867 5867 5871 5875 5876 5879 5876 5870 5872 5875 5874 5873 5874 5874 5875 5877 5878 5877 5875 5874 5875 5874 5874 5873 5872 5872 5872 5871 5870 5870 5869 5869 5868 5868 5867 5867 5867 5867 5866 5866 5866 5865 5864 5864 5863 5862 5861 5861 5859 5858 5857 5856 5855 5854 5852 5851 5850 5849 5847 5846 5845 5844 5844 5843 5843 5842 5842 5841 5840 5839 5839 5838 5838 5837
5845 5847 5848 5849 5850 5851 5852 5852 5851 5853 5854 5855 5858 5862 5864 5867 5869 5871 5873 5874 5875 5871 5865 5863 5867 5871 5874 5876 5876 5871 5866 5870 5874 5872 5872 5872 5873 5875 5875 5876 5875 5873 5873 5873 5873 5872 5871 5871 5870 5870 5870 5869 5869 5868 5867 5867 5867 5866 5867 5866 5866 5866 5866 5865 5865 5864 5863 5862 5862 5861 5860 5859 5858 5857 5856 5854 5853 5852 5851 5850 5849 5847 5846 5845 5844 5844 5843 5843 5842 5842 5841 5840 5839 5839 5838 5837 5837
5841 5843 5844 5846 5847 5847 5849 5848 5848 5849 5851 5853 5856 5860 5863 5865 5869 5872 5873 5871 5869 5865 5859 5861 5867 5870 5873 5875 5871 5866 5866 5869 5872 5870 5870 5871 5872 5873 5872 5873 5873 5871 5871 5871 5871 5870 5870 5869 5869 5869 5868 5868 5867 5867 5866 5866 5865 5866 5866 5866 5865 5865 5865 5865 5864 5863 5863 5862 5861 5861 5860 5859 5858 5856 5855 5854 5853 5852 5851 5850 5849 5848 5846 5845 5844 5844 5843 5843 5842 5842 5841 5840 5839 5838 5838 5837 5837
5837 5839 5840 5842 5843 5844 5845 5845 5845 5845 5848 5852 5854 5857 5861 5865 5870 5874 5870 5863 5863 5862 5859 5861 5867 5870 5869 5870 5867 5864 5866 5867 5869 5869 5869 5869 5870 5871 5871 5871 5871 5870 5870 5870 5869 5868 5868 5868 5867 5867 5866 5866 5866 5865 5865 5864 5864 5865 5865 5865 5864 5864 5864 5864 5863 5863 5862 5861 5861 5860 5860 5858 5857 5856 5855 5854 5853 5852 5851 5850 5849 5848 5847 5845 5845 5844 5843 5843 5842 5842 5841 5840 5839 5838 5838 5837 5837
5833 5835 5836 5838 5839 5840 5841 5841 5842 5842 5846 5851 5852 5855 5860 5863 5866 5868 5863 5859 5862 5862 5861 5862 5866 5868 5863 5865 5867 5864 5864 5865 5866 5868 5869 5868 5868 5870 5870 5870 5870 5870 5869 5868 5868 5867 5867 5866 5866 5865 5865 5864 5864 5864 5863 5863 5863 5864 5864 5864 5864 5863 5863 5863 5863 5862 5862 5861 5860 5860 5859 5858 5857 5856 5855 5854 5853 5852 5851 5850 5849 5848 5847 5845 5845 5844 5843 5843 5842 5841 5841 5840 5839 5838 5838 5837 5837
5829 5831 5832 5834 5835 5837 5836 5837 5840 5841 5844 5848 5850 5852 5857 5860 5858 5858 5858 5859 5861 5860 5861 5862 5863 5866 5862 5861 5864 5863 5863 5863 5864 5867 5868 5866 5867 5869 5868 5869 5869 5869 5867 5867 5866 5866 5865 5865 5864 5864 5863 5863 5863 5862 5862 5862 5862 5863 5863 5863 5863 5862 5862 5862 5862 5862 5861 5860 5860 5859 5859 5858 5857 5856 5854 5853 5852 5851 5851 5850 5849 5847 5847 5846 5845 5844 5843 5842 5842 5841 5840 5840 5839 5838 5838 5837 5836
5826 5827 5828 5830 5831 5832 5833 5833 5837 5839 5842 5845 5847 5849 5854 5858 5855 5853 5854 5856 5857 5857 5859 5858 5861 5864 5861 5859 5858 5860 5863 5862 5863 5865 5866 5864 5865 5867 5867 5868 5868 5867 5866 5865 5865 5864 5864 5863 5863 5862 5862 5861 5861 5861 5861 5861 5861 5862 5862 5862 5862 5862 5862 5862 5862 5861 5861 5860 5859 5859 5858 5857 5856 5855 5854 5853 5852 5851 5850 5849 5849 5847 5847 5846 5845 5844 5843 5842 5841 5841 5840 5839 5839 5838 5837 5837 5836
5822 5823 5824 5826 5827 5828 5829 5831 5833 5837 5840 5843 5844 5847 5851 5856 5853 5848 5849 5852 5854 5855 5856 5856 5859 5860 5859 5857 5855 5858 5862 5862 5862 5863 5864 5863 5863 5865 5866 5867 5867 5865 5864 5864 5863 5863 5862 5862 5861 5861 5860 5860 5860 5860 5860 5860 5860 5861 5861 5861 5861 5861 5861 5861 5861 5861 5860 5859 5859 5858 5858 5857 5856 5855 5854 5853 5852 5851 5850 5849 5849 5848 5847 5846 5845 5844 5843 5842 5841 5840 5840 5839 5838 5838 5837 5836 5836
5818 5820 5821 5822 5824 5825 5826 5828 5830 5834 5837 5840 5842 5845 5848 5851 5850 5847 5846 5847 5851 5854 5854 5854 5856 5858 5855 5854 5854 5856 5860 5861 5861 5861 5861 5860 5861 5862 5864 5865 5865 5863 5862 5862 5861 5861 5860 5860 5860 5859 5859 5859 5859 5859 5859 5859 5859 5860 5860 5860 5860 5860 5860 5860 5860 5860 5859 5859 5858 5858 5857 5857 5856 5854 5853 5852 5851 5850 5850 5849 5848 5847 5846 5845 5845 5844 5843 5842 5841 5840 5840 5839 5838 5837 5837 5836 5835
5814 5816 5817 5818 5820 5822 5824 5826 5828 5831 5834 5838 5839 5841 5845 5849 5848 5845 5842 5842 5849 5853 5853 5852 5853 5855 5852 5851 5852 5854 5858 5859 5860 5860 5859 5859 5859 5861 5862 5863 5862 5862 5861 5860 5859 5859 5858 5858 5858 5858 5858 5857 5857 5858 5858 5858 5858 5859 5859 5859 5859 5859 5859 5860 5860 5859 5859 5858 5858 5857 5857 5856 5855 5854 5853 5852 5851 5850 5850 5849 5848 5847 5846 5845 5844 5844 5843 5842 5841 5840 5840 5839 5838 5837 5837 5836 5835
5810 5813 5814 5814 5817 5820 5822 5824 5826 5828 5832 5834 5834 5840 5845 5846 5840 5838 5841 5842 5847 5850 5850 5850 5850 5852 5849 5848 5848 5850 5855 5857 5857 5857 5856 5857 5857 5859 5860 5860 5860 5860 5859 5858 5858 5857 5857 5856 5856 5856 5856 5856 5856 5857 5857 5857 5857 5858 5858 5858 5858 5858 5859 5859 5859 5858 5858 5857 5857 5857 5856 5856 5855 5854 5852 5851 5851 5850 5850 5849 5848 5847 5846 5845 5844 5843 5843 5842 5841 5840 5840 5839 5838 5837 5836 5836 5835
5807 5809 5810 5811 5814 5818 5820 5821 5824 5826 5829 5830 5834 5840 5842 5841 5832 5832 5842 5843 5843 5846 5847 5849 5849 5847 5846 5847 5846 5848 5852 5852 5854 5854 5854 5855 5856 5858 5858 5858 5858 5857 5857 5856 5856 5855 5855 5855 5855 5855 5855 5855 5855 5856 5856 5856 5857 5857 5857 5857 5857 5858 5858 5858 5858 5858 5857 5857 5856 5856 5856 5855 5854 5853 5852 5851 5850 5850 5850 5849 5848 5847 5846 5845 5844 5843 5842 5842 5841 5840 5840 5839 5838 5837 5837 5836 5835
5804 5805 5806 5808 5811 5813 5817 5819 5821 5824 5826 5830 5834 5837 5837 5835 5826 5828 5841 5841 5840 5843 5844 5846 5846 5843 5843 5845 5845 5848 5850 5849 5850 5851 5852 5853 5854 5856 5855 5856 5856 5855 5855 5854 5854 5854 5854 5853 5853 5854 5854 5854 5854 5855 5855 5855 5855 5856 5856 5856 5857 5857 5857 5857 5857 5857 5856 5856 5856 5855 5855 5854 5853 5853 5852 5851 5850 5849 5849 5849 5848 5847 5846 5845 5844 5843 5842 5842 5841 5840 5839 5839 5838 5837 5837 5836 5835
5801 5802 5802 5804 5807 5809 5813 5816 5819 5822 5825 5829 5831 5831 5830 5826 5822 5828 5837 5838 5839 5840 5841 5843 5842 5840 5842 5844 5843 5845 5847 5846 5847 5848 5849 5850 5852 5853 5852 5854 5854 5853 5853 5852 5853 5853 5852 5852 5852 5852 5853 5853 5853 5854 5854 5854 5854 5855 5855 5855 5856 5856 5856 5856 5856 5856 5856 5855 5855 5855 5854 5854 5853 5852 5851 5850 5849 5849 5849 5848 5848 5847 5846 5845 5844 5844 5843 5842 5841 5840 5840 5839 5838 5838 5837 5836 5835
5798 5798 5799 5800 5803 5806 5810 5813 5817 5819 5822 5825 5824 5824 5822 5822 5824 5827 5831 5834 5837 5838 5839 5839 5837 5838 5839 5838 5839 5843 5845 5845 5846 5846 5847 5848 5849 5850 5850 5851 5852 5851 5851 5851 5851 5851 5851 5851 5851 5851 5852 5852 5852 5853 5853 5853 5853 5854 5854 5855 5855 5855 5855 5855 5855 5855 5855 5855 5854 5854 5854 5853 5853 5852 5851 5850 5849 5848 5848 5847 5848 5847 5847 5846 5845 5844 5843 5842 5841 5841 5840 5839 5839 5838 5837 5836 5835
5794 5795 5795 5797 5800 5803 5807 5811 5815 5817 5820 5820 5819 5820 5819 5821 5822 5821 5827 5832 5834 5836 5835 5834 5833 5834 5834 5833 5838 5843 5843 5843 5843 5843 5845 5846 5847 5847 5848 5849 5849 5849 5849 5850 5850 5849 5849 5849 5850 5850 5850 5851 5851 5851 5851 5852 5852 5853 5853 5853 5854 5853 5854 5853 5854 5854 5854 5854 5854 5854 5854 5853 5852 5851 5851 5850 5849 5848 5847 5847 5846 5846 5846 5846 5845 5844 5843 5842 5841 5841 5840 5839 5838 5837 5837 5836 5835
5790 5791 5793 5795 5798 5801 5805 5808 5811 5814 5816 5817 5817 5817 5816 5817 5816 5817 5826 5829 5831 5835 5830 5829 5831 5830 5830 5832 5837 5841 5840 5840 5841 5842 5843 5843 5845 5845 5846 5847 5847 5846 5847 5848 5848 5848 5848 5848 5848 5849 5849 5849 5850 5850 5850 5851 5851 5851 5852 5852 5852 5852 5852 5852 5853 5853 5853 5853 5853 5853 5853 5852 5852 5851 5850 5849 5849 5848 5847 5846 5845 5845 5845 5845 5844 5844 5843 5842 5842 5841 5840 5839 5838 5837 5836 5835 5835
5786 5788 5789 5793 5797 5799 5802 5804 5807 5811 5815 5817 5813 5807 5807 5811 5814 5817 5822 5826 5829 5831 5827 5825 5828 5827 5828 5831 5834 5836 5836 5837 5838 5839 5840 5841 5842 5843 5844 5844 5844 5844 5845 5846 5846 5846 5846 5846 5847 5847 5848 5848 5849 5849 5849 5850 5850 5850 5851 5851 5851 5851 5851 5851 5851 5852 5852 5852 5852 5852 5852 5852 5851 5850 5850 5849 5848 5847 5847 5846 5845 5844 5844 5843 5843 5843 5843 5842 5842 5841 5840 5839 5838 5837 5836 5835 5834
5783 5784 5786 5791 5795 5796 5798 5800 5804 5808 5810 5811 5803 5796 5801 5808 5815 5817 5819 5824 5826 5826 5825 5822 5823 5825 5826 5829 5832 5832 5832 5834 5836 5837 5838 5839 5840 5840 5841 5842 5842 5842 5843 5844 5844 5844 5845 5845 5845 5846 5846 5847 5847 5848 5848 5848 5848 5849 5849 5849 5850 5850 5850 5850 5850 5851 5851 5851 5851 5851 5851 5851 5850 5850 5850 5849 5848 5847 5846 5846 5845 5844 5843 5842 5842 5841 5841 5841 5841 5840 5840 5839 5838 5837 5836 5834 5833
5778 5781 5784 5789 5791 5792 5795 5797 5800 5801 5800 5801 5797 5796 5800 5807 5816 5816 5816 5820 5822 5823 5824 5820 5819 5822 5824 5827 5829 5829 5830 5830 5833 5834 5835 5837 5837 5838 5839 5839 5839 5840 5841 5842 5842 5842 5843 5843 5844 5845 5845 5846 5846 5846 5847 5847 5847 5847 5848 5848 5848 5848 5849 5849 5849 5849 5849 5850 5850 5850 5850 5850 5849 5849 5849 5849 5848 5847 5846 5846 5845 5844 5843 5843 5842 5841 5840 5840 5839 5839 5838 5838 5837 5837 5836 5835 5833
5774 5778 5782 5786 5787 5788 5792 5794 5795 5794 5794 5796 5798 5799 5797 5804 5813 5812 5812 5817 5819 5820 5822 5819 5816 5818 5821 5823 5825 5825 5826 5828 5830 5831 5833 5834 5834 5836 5836 5836 5837 5838 5839 5839 5840 5840 5841 5842 5842 5843 5844 5844 5845 5845 5845 5845 5846 5846 5846 5846 5847 5847 5847 5848 5848 5848 5848 5848 5849 5849 5849 5849 5849 5849 5849 5848 5847 5847 5846 5845 5845 5844 5844 5843 5842 5841 5840 5839 5838 5837 5837 5836 5836 5836 5835 5834 5833
5770 5775 5779 5781 5782 5784 5787 5789 5789 5787 5791 5795 5797 5797 5794 5801 5807 5805 5809 5815 5817 5817 5818 5816 5812 5815 5818 5819 5821 5821 5823 5825 5827 5829 5831 5831 5832 5833 5833 5834 5835 5835 5836 5837 5838 5839 5839 5840 5841 5842 5843 5843 5843 5843 5844 5844 5844 5844 5845 5845 5845 5846 5846 5846 5846 5846 5846 5847 5847 5847 5848 5848 5848 5848 5848 5848 5847 5846 5846 5845 5845 5844 5843 5843 5842 5841 5840 5839 5838 5837 5836 5835 5834 5834 5834 5834 5833
5767 5771 5775 5777 5779 5781 5782 5784 5783 5782 5789 5794 5794 5794 5793 5797 5800 5800 5807 5811 5814 5814 5813 5813 5809 5810 5814 5816 5818 5819 5821 5823 5825 5827 5828 5829 5829 5830 5831 5832 5833 5833 5834 5835 5836 5837 5838 5839 5839 5840 5841 5841 5841 5842 5842 5842 5842 5843 5843 5843 5843 5844 5844 5845 5845 5845 5845 5845 5846 5846 5847 5847 5847 5848 5847 5847 5847 5846 5845 5845 5844 5843 5843 5842 5842 5840 5840 5839 5838 5837 5836 5834 5833 5833 5833 5833 5832
5763 5767 5771 5773 5774 5778 5778 5779 5780 5780 5787 5791 5790 5791 5791 5793 5795 5798 5804 5807 5811 5810 5808 5809 5804 5804 5810 5814 5816 5817 5820 5821 5823 5824 5825 5826 5827 5828 5829 5829 5830 5831 5832 5833 5834 5835 5836 5837 5838 5839 5839 5840 5840 5840 5840 5840 5840 5841 5841 5842 5842 5842 5843 5844 5844 5844 5844 5844 5845 5845 5845 5846 5846 5846 5846 5846 5846 5846 5845 5845 5844 5843 5843 5842 5841 5840 5839 5838 5838 5837 5836 5835 5834 5832 5832 5831 5831
5760 5764 5766 5768 5771 5774 5774 5775 5777 5778 5783 5787 5787 5788 5788 5790 5792 5795 5800 5802 5806 5806 5804 5805 5800 5802 5810 5814 5816 5816 5818 5819 5821 5822 5823 5823 5824 5825 5826 5827 5828 5829 5830 5831 5832 5833 5834 5835 5836 5837 5837 5838 5838 5838 5839 5838 5839 5839 5839 5840 5840 5841 5841 5842 5842 5842 5843 5843 5843 5843 5844 5845 5845 5845 5845 5845 5844 5845 5845 5844 5844 5843 5843 5842 5841 5840 5839 5838 5837 5836 5835 5834 5833 5832 5831 5830 5830
5757 5759 5762 5764 5767 5769 5770 5771 5774 5775 5778 5782 5784 5785 5785 5787 5789 5792 5796 5798 5802 5802 5801 5801 5799 5802 5810 5813 5813 5814 5815 5817 5818 5818 5818 5819 5820 5822 5823 5824 5825 5826 5828 5829 5830 5831 5832 5833 5834 5835 5835 5836 5836 5836 5836 5836 5837 5837 5838 5838 5838 5839 5839 5840 5840 5841 5841 5841 5842 5842 5843 5843 5843 5844 5843 5843 5843 5843 5843 5843 5843 5843 5842 5841 5840 5839 5839 5838 5837 5836 5835 5834 5833 5832 5831 5830 5829
5753 5755 5757 5759 5761 5764 5766 5768 5771 5772 5775 5779 5781 5781 5782 5784 5786 5789 5793 5795 5798 5799 5797 5798 5798 5800 5806 5809 5809 5811 5813 5814 5815 5815 5815 5816 5818 5819 5820 5822 5823 5824 5826 5826 5828 5829 5830 5831 5832 5833 5833 5834 5834 5834 5834 5835 5835 5835 5836 5836 5836 5837 5837 5838 5838 5839 5839 5840 5841 5841 5842 5842 5842 5842 5842 5842 5842 5842 5842 5842 5841 5841 5840 5840 5839 5838 5837 5837 5836 5835 5834 5833 5832 5831 5830 5829 5828
5749 5751 5752 5754 5757 5760 5763 5765 5767 5769 5772 5776 5777 5777 5778 5781 5784 5787 5791 5792 5794 5795 5793 5794 5797 5797 5801 5805 5806 5808 5810 5811 5813 5814 5815 5815 5814 5816 5818 5819 5820 5822 5823 5824 5826 5827 5828 5829 5829 5830 5831 5831 5832 5832 5832 5832 5833 5833 5833 5834 5834 5835 5835 5836 5837 5837 5838 5839 5839 5840 5840 5840 5840 5840 5840 5841 5841 5841 5841 5840 5840 5839 5839 5838 5838 5837 5836 5836 5835 5834 5833 5832 5832 5831 5830 5828 5827
5744 5747 5748 5751 5754 5757 5760 5762 5764 5767 5770 5772 5772 5773 5776 5780 5782 5785 5788 5789 5789 5791 5791 5792 5793 5794 5797 5800 5803 5805 5807 5809 5811 5812 5813 5812 5811 5813 5815 5816 5818 5820 5820 5822 5823 5824 5825 5826 5827 5828 5828 5829 5829 5830 5830 5830 5830 5831 5831 5832 5832 5832 5833 5834 5835 5836 5837 5837 5838 5838 5838 5839 5839 5839 5839 5839 5840 5840 5840 5839 5839 5838 5838 5837 5836 5836 5835 5834 5834 5833 5832 5831 5830 5830 5829 5828 5827
5740 5743 5745 5747 5750 5754 5758 5758 5761 5764 5766 5768 5768 5769 5774 5777 5779 5782 5785 5786 5786 5788 5791 5790 5787 5790 5795 5797 5800 5802 5804 5806 5808 5808 5809 5810 5809 5811 5812 5814 5815 5817 5818 5819 5821 5821 5822 5824 5825 5825 5826 5826 5827 5827 5827 5828 5828 5828 5829 5829 5830 5830 5832 5833 5833 5834 5835 5835 5836 5836 5837 5837 5837 5838 5838 5838 5838 5838 5838 5838 5838 5837 5837 5836 5835 5835 5834 5833 5832 5831 5831 5830 5829 5828 5828 5827 5826
5737 5740 5742 5744 5747 5752 5754 5754 5757 5761 5763 5764 5764 5766 5771 5774 5776 5779 5783 5784 5783 5785 5789 5787 5784 5786 5790 5794 5797 5799 5801 5804 5805 5805 5806 5808 5808 5809 5810 5812 5813 5814 5815 5816 5817 5818 5820 5821 5822 5822 5823 5823 5824 5824 5825 5825 5825 5826 5827 5827 5828 5829 5830 5830 5831 5832 5833 5833 5834 5835 5835 5836 5836 5837 5837 5837 5837 5837 5837 5837 5837 5837 5836 5836 5835 5834 5833 5832 5831 5830 5829 5828 5828 5827 5826 5826 5825
5733 5736 5738 5741 5744 5749 5750 5751 5754 5757 5759 5760 5761 5764 5767 5771 5774 5777 5780 5781 5780 5783 5785 5782 5782 5783 5784 5791 5794 5795 5798 5800 5801 5802 5804 5805 5805 5807 5808 5809 5810 5810 5812 5813 5814 5815 5817 5818 5819 5819 5820 5820 5821 5821 5822 5823 5823 5824 5825 5825 5825 5826 5827 5827 5828 5829 5831 5832 5832 5833 5834 5835 5835 5835 5836 5836 5836 5836 5836 5836 5836 5836 5836 5835 5835 5834 5833 5832 5831 5830 5828 5827 5826 5825 5825 5824 5823
5729 5731 5734 5738 5741 5745 5747 5750 5752 5752 5756 5757 5758 5761 5764 5769 5774 5774 5776 5777 5777 5780 5780 5778 5779 5780 5783 5790 5791 5791 5795 5796 5798 5800 5801 5803 5804 5804 5805 5804 5805 5806 5807 5809 5810 5812 5814 5815 5815 5816 5816 5817 5818 5819 5819 5820 5821 5822 5822 5822 5823 5823 5824 5825 5827 5828 5829 5830 5831 5832 5832 5833 5834 5834 5834 5834 5835 5835 5835 5835 5835 5835 5835 5835 5834 5833 5832 5831 5830 5828 5827 5826 5825 5824 5823 5822 5821
5724 5727 5731 5735 5738 5742 5744 5748 5751 5748 5751 5756 5755 5757 5762 5768 5772 5773 5773 5772 5773 5776 5776 5775 5777 5778 5781 5785 5786 5788 5791 5793 5795 5797 5799 5801 5801 5800 5799 5799 5800 5801 5804 5806 5807 5809 5811 5812 5812 5812 5813 5814 5815 5816 5816 5817 5818 5819 5820 5819 5819 5820 5822 5824 5826 5827 5828 5829 5830 5831 5831 5832 5832 5832 5833 5833 5833 5834 5834 5834 5834 5834 5834 5833 5833 5832 5831 5830 5828 5827 5826 5825 5824 5823 5822 5821 5820
5722 5726 5730 5734 5736 5740 5742 5746 5750 5746 5747 5752 5753 5754 5760 5766 5768 5770 5771 5768 5769 5772 5771 5771 5773 5776 5778 5779 5782 5786 5788 5790 5792 5794 5797 5797 5795 5794 5792 5793 5795 5797 5800 5802 5804 5806 5808 5808 5809 5810 5810 5812 5814 5815 5817 5819 5820 5821 5822 5821 5819 5818 5819 5822 5824 5826 5827 5828 5828 5829 5830 5830 5830 5831 5831 5832 5832 5832 5832 5832 5832 5832 5832 5832 5831 5830 5829 5829 5828 5827 5825 5824 5822 5821 5820 5819 5818
5721 5725 5728 5731 5733 5737 5739 5744 5748 5745 5743 5748 5752 5753 5757 5764 5765 5767 5769 5766 5766 5768 5766 5768 5770 5773 5777 5778 5782 5785 5786 5788 5789 5789 5790 5789 5787 5786 5785 5787 5789 5792 5795 5798 5800 5802 5804 5806 5807 5808 5810 5813 5816 5817 5818 5820 5821 5822 5823 5823 5822 5820 5818 5818 5821 5824 5825 5826 5827 5827 5828 5828 5829 5830 5830 5830 5831 5831 5831 5831 5830 5830 5830 5830 5829 5829 5828 5827 5826 5825 5824 5823 5821 5820 5819 5818 5816
5719 5722 5725 5728 5730 5733 5737 5742 5747 5744 5741 5745 5750 5751 5754 5760 5762 5764 5766 5764 5762 5763 5764 5767 5770 5772 5776 5778 5781 5782 5783 5784 5783 5781 5781 5782 5782 5781 5782 5783 5783 5786 5791 5793 5796 5798 5802 5804 5806 5808 5810 5812 5814 5814 5815 5817 5818 5819 5819 5820 5822 5822 5821 5818 5817 5820 5823 5824 5825 5825 5826 5827 5827 5828 5828 5829 5829 5829 5829 5829 5829 5829 5828 5828 5827 5827 5826 5826 5825 5824 5823 5821 5820 5819 5817 5816 5814
5717 5719 5722 5726 5728 5731 5736 5740 5746 5746 5739 5741 5746 5748 5751 5757 5759 5760 5763 5761 5759 5760 5762 5764 5768 5771 5773 5775 5778 5779 5778 5776 5773 5773 5775 5780 5784 5783 5785 5785 5783 5788 5792 5792 5793 5797 5801 5803 5804 5805 5807 5809 5810 5810 5811 5813 5815 5816 5817 5818 5818 5819 5821 5821 5818 5817 5820 5822 5823 5824 5824 5825 5826 5826 5827 5827 5827 5828 5828 5828 5828 5827 5827 5826 5825 5825 5825 5824 5823 5822 5821 5820 5818 5817 5816 5814 5813
5713 5715 5718 5723 5725 5729 5734 5736 5742 5743 5737 5738 5744 5746 5748 5753 5756 5757 5758 5759 5757 5758 5759 5761 5765 5770 5771 5772 5775 5774 5770 5768 5768 5771 5774 5779 5784 5786 5788 5788 5786 5792 5797 5795 5796 5800 5801 5801 5801 5802 5804 5806 5807 5807 5808 5810 5812 5813 5815 5815 5816 5816 5818 5821 5820 5816 5817 5820 5821 5822 5823 5824 5824 5824 5825 5826 5826 5826 5826 5827 5826 5826 5825 5824 5824 5823 5823 5822 5822 5821 5820 5818 5817 5816 5814 5813 5811
5708 5712 5714 5719 5723 5727 5733 5735 5738 5740 5735 5736 5741 5744 5745 5748 5752 5754 5755 5757 5755 5754 5756 5757 5762 5766 5768 5770 5770 5766 5763 5765 5770 5775 5777 5779 5783 5786 5788 5787 5786 5792 5796 5794 5797 5799 5798 5798 5799 5800 5801 5803 5804 5805 5806 5808 5809 5810 5811 5812 5813 5815 5815 5818 5819 5816 5816 5818 5819 5820 5821 5822 5822 5823 5823 5824 5824 5825 5825 5825 5825 5824 5824 5823 5822 5822 5821 5820 5820 5819 5818 5817 5815 5814 5812 5811 5809
5705 5708 5710 5715 5720 5726 5731 5734 5738 5737 5733 5733 5737 5741 5742 5744 5749 5751 5753 5754 5754 5752 5751 5755 5760 5762 5765 5767 5763 5759 5760 5765 5769 5772 5776 5779 5782 5786 5785 5782 5784 5791 5792 5790 5793 5794 5792 5794 5796 5797 5799 5801 5803 5804 5805 5806 5807 5808 5809 5810 5811 5812 5813 5815 5816 5814 5815 5817 5818 5819 5820 5820 5821 5821 5822 5822 5823 5823 5823 5823 5823 5823 5822 5821 5820 5820 5819 5818 5818 5817 5816 5815 5814 5812 5811 5809 5807
5702 5705 5708 5712 5717 5724 5728 5732 5735 5735 5731 5731 5733 5737 5741 5742 5745 5748 5750 5752 5753 5750 5748 5752 5757 5759 5763 5761 5755 5756 5761 5765 5766 5768 5775 5776 5778 5783 5781 5779 5784 5788 5787 5787 5788 5789 5790 5792 5794 5796 5797 5799 5801 5803 5804 5805 5805 5806 5807 5808 5809 5810 5812 5813 5813 5813 5814 5816 5816 5817 5818 5819 5819 5820 5820 5821 5821 5822 5822 5821 5821 5821 5820 5820 5819 5818 5817 5816 5816 5815 5814 5813 5812 5811 5809 5808 5806
5698 5702 5705 5710 5716 5722 5727 5730 5733 5733 5731 5729 5730 5734 5738 5741 5742 5744 5747 5750 5752 5750 5745 5747 5753 5758 5760 5756 5753 5757 5762 5764 5765 5768 5774 5774 5774 5778 5776 5777 5783 5785 5784 5785 5786 5789 5791 5793 5793 5794 5796 5798 5800 5801 5802 5803 5804 5805 5806 5807 5807 5808 5810 5811 5811 5812 5813 5814 5815 5816 5817 5817 5818 5818 5819 5819 5819 5820 5820 5819 5819 5819 5818 5818 5817 5816 5815 5814 5813 5813 5812 5811 5810 5808 5807 5806 5804
5695 5701 5703 5707 5713 5716 5722 5727 5729 5732 5730 5727 5729 5731 5734 5737 5740 5741 5744 5746 5749 5749 5744 5743 5749 5754 5756 5755 5756 5760 5762 5765 5766 5767 5771 5772 5773 5774 5774 5776 5781 5782 5781 5783 5786 5789 5790 5791 5792 5793 5795 5797 5798 5799 5800 5801 5802 5803 5803 5804 5806 5806 5808 5808 5808 5810 5812 5813 5814 5814 5815 5816 5816 5817 5817 5817 5818 5818 5818 5818 5817 5817 5816 5816 5815 5814 5813 5812 5811 5810 5809 5808 5807 5806 5804 5803 5802
5693 5699 5699 5704 5709 5711 5716 5720 5724 5727 5725 5724 5727 5729 5730 5734 5738 5739 5740 5743 5746 5748 5745 5742 5743 5747 5752 5756 5758 5760 5762 5765 5767 5767 5768 5770 5771 5772 5772 5775 5777 5778 5779 5782 5787 5788 5788 5789 5790 5791 5793 5794 5795 5796 5797 5798 5799 5800 5800 5802 5803 5804 5806 5807 5806 5808 5810 5811 5812 5812 5813 5814 5814 5815 5815 5815 5816 5816 5816 5816 5815 5815 5815 5814 5813 5812 5811 5810 5809 5808 5807 5806 5805 5804 5802 5801 5799
5690 5696 5697 5702 5705 5708 5712 5714 5717 5721 5718 5719 5724 5727 5728 5730 5734 5736 5738 5742 5744 5746 5746 5742 5738 5739 5746 5753 5756 5759 5761 5764 5766 5765 5765 5768 5771 5772 5771 5773 5774 5776 5779 5782 5785 5786 5786 5788 5789 5789 5791 5792 5793 5793 5794 5795 5796 5797 5798 5800 5801 5801 5803 5805 5804 5805 5808 5809 5810 5811 5811 5812 5813 5813 5814 5814 5814 5814 5814 5814 5813 5813 5812 5812 5811 5810 5809 5808 5807 5806 5805 5804 5803 5801 5800 5799 5797
5686 5691 5695 5700 5702 5704 5708 5710 5712 5712 5711 5714 5720 5725 5727 5726 5729 5734 5738 5742 5744 5743 5744 5742 5738 5737 5741 5746 5752 5756 5758 5761 5763 5763 5763 5766 5770 5772 5770 5771 5773 5776 5778 5778 5781 5784 5785 5786 5786 5787 5788 5789 5791 5791 5792 5793 5793 5794 5795 5797 5799 5800 5801 5802 5802 5804 5806 5807 5808 5809 5810 5810 5811 5812 5812 5812 5812 5812 5812 5812 5812 5811 5810 5809 5809 5808 5807 5806 5805 5804 5803 5802 5800 5799 5798 5796 5795
5681 5686 5691 5696 5698 5700 5702 5704 5705 5705 5708 5713 5718 5723 5725 5724 5727 5733 5736 5741 5743 5743 5741 5740 5738 5737 5739 5743 5749 5754 5756 5758 5759 5760 5761 5764 5768 5770 5769 5769 5772 5775 5777 5777 5779 5782 5784 5784 5784 5784 5786 5788 5789 5790 5790 5791 5791 5791 5792 5794 5796 5798 5799 5800 5801 5802 5804 5805 5805 5807 5808 5808 5809 5810 5810 5810 5810 5810 5810 5810 5810 5809 5808 5807 5807 5806 5804 5803 5802 5801 5800 5799 5798 5797 5795 5794 5792
5675 5681 5686 5690 5694 5695 5695 5699 5701 5702 5706 5712 5716 5720 5722 5723 5727 5730 5731 5737 5743 5743 5740 5737 5736 5734 5736 5743 5748 5752 5754 5755 5756 5757 5759 5762 5766 5768 5768 5768 5771 5774 5776 5777 5778 5780 5781 5781 5781 5782 5784 5786 5788 5789 5789 5789 5790 5790 5790 5792 5794 5797 5798 5798 5799 5800 5802 5803 5804 5805 5806 5806 5807 5808 5808 5808 5808 5808 5808 5808 5807 5807 5806 5805 5805 5804 5802 5801 5800 5799 5798 5797 5796 5794 5793 5791 5790
5671 5679 5684 5686 5690 5691 5692 5696 5698 5701 5705 5709 5713 5716 5718 5722 5726 5726 5728 5734 5741 5741 5739 5737 5733 5729 5733 5740 5745 5747 5750 5753 5754 5755 5757 5761 5764 5766 5766 5768 5770 5773 5774 5775 5776 5778 5778 5778 5779 5781 5783 5785 5786 5787 5787 5788 5790 5790 5790 5790 5792 5795 5797 5797 5797 5799 5801 5802 5802 5803 5804 5805 5805 5805 5806 5806 5806 5806 5806 5806 5805 5804 5804 5803 5802 5802 5800 5799 5798 5797 5796 5795 5793 5792 5790 5788 5787
5669 5677 5680 5681 5687 5691 5693 5696 5699 5702 5705 5706 5710 5713 5715 5718 5722 5724 5726 5731 5737 5738 5738 5736 5730 5727 5730 5735 5740 5743 5747 5750 5753 5754 5756 5759 5762 5764 5765 5766 5769 5771 5772 5773 5774 5775 5775 5776 5778 5780 5782 5783 5784 5785 5786 5787 5788 5789 5790 5790 5791 5794 5796 5797 5797 5798 5799 5800 5801 5801 5802 5803 5803 5803 5804 5804 5804 5804 5804 5803 5803 5802 5802 5801 5800 5799 5798 5797 5796 5795 5793 5792 5791 5789 5787 5785 5784
5667 5672 5674 5677 5686 5692 5694 5695 5697 5700 5701 5703 5707 5710 5713 5714 5717 5722 5725 5729 5734 5735 5732 5731 5729 5726 5727 5730 5735 5740 5744 5748 5751 5753 5755 5757 5760 5762 5764 5765 5768 5769 5770 5771 5772 5773 5774 5774 5776 5778 5780 5782 5783 5784 5785 5785 5785 5786 5788 5789 5791 5793 5795 5795 5796 5797 5798 5798 5799 5799 5800 5801 5801 5801 5801 5801 5801 5801 5801 5801 5801 5800 5799 5799 5798 5797 5796 5794 5793 5792 5791 5789 5788 5786 5784 5783 5781
5664 5668 5673 5679 5685 5689 5692 5694 5696 5697 5698 5701 5704 5707 5710 5712 5715 5721 5723 5726 5732 5730 5725 5727 5728 5726 5725 5728 5733 5737 5742 5746 5749 5752 5754 5755 5759 5761 5762 5764 5766 5767 5768 5769 5770 5771 5772 5773 5775 5777 5779 5781 5782 5782 5783 5783 5783 5784 5786 5788 5790 5791 5792 5793 5794 5795 5796 5796 5797 5797 5798 5799 5799 5799 5799 5799 5799 5799 5799 5798 5798 5797 5797 5796 5795 5794 5793 5792 5790 5789 5788 5786 5785 5783 5782 5780 5778
5662 5668 5674 5677 5679 5682 5686 5690 5692 5693 5695 5698 5701 5704 5708 5709 5713 5719 5718 5721 5728 5726 5722 5724 5726 5724 5725 5729 5732 5736 5740 5744 5747 5750 5752 5754 5757 5759 5761 5763 5764 5765 5767 5767 5768 5770 5771 5772 5773 5775 5777 5779 5779 5780 5781 5782 5782 5784 5785 5787 5787 5789 5790 5790 5792 5793 5794 5795 5795 5796 5796 5797 5797 5797 5797 5797 5797 5797 5796 5796 5795 5795 5794 5793 5792 5791 5790 5789 5787 5786 5784 5783 5782 5780 5779 5777 5775
5660 5668 5672 5672 5674 5679 5684 5687 5689 5691 5693 5695 5699 5702 5705 5706 5711 5716 5715 5718 5725 5723 5718 5719 5721 5723 5726 5730 5732 5735 5738 5741 5744 5747 5749 5751 5754 5756 5759 5761 5762 5763 5764 5765 5766 5768 5769 5770 5772 5773 5775 5776 5777 5778 5780 5781 5782 5783 5784 5784 5785 5785 5787 5788 5790 5791 5792 5793 5793 5794 5795 5795 5795 5795 5795 5795 5795 5794 5794 5793 5793 5792 5791 5790 5789 5788 5787 5786 5784 5783 5782 5780 5779 5777 5776 5775 5773
5658 5664 5667 5667 5671 5678 5683 5685 5688 5690 5692 5693 5696 5699 5702 5704 5707 5712 5713 5715 5719 5719 5717 5716 5718 5721 5725 5729 5731 5734 5736 5738 5741 5744 5746 5748 5750 5753 5755 5757 5759 5760 5762 5763 5764 5765 5767 5769 5770 5772 5773 5774 5775 5777 5778 5779 5780 5781 5782 5782 5782 5783 5784 5786 5788 5789 5790 5791 5792 5793 5793 5793 5794 5793 5793 5793 5792 5792 5791 5791 5790 5789 5788 5788 5787 5785 5784 5783 5782 5780 5779 5778 5776 5774 5773 5772 5770
5657 5660 5663 5665 5669 5676 5680 5682 5685 5689 5691 5692 5694 5696 5701 5704 5705 5708 5712 5713 5713 5715 5717 5717 5716 5717 5720 5725 5729 5732 5734 5736 5739 5741 5744 5745 5747 5749 5752 5754 5756 5758 5760 5761 5762 5763 5765 5767 5769 5770 5771 5772 5774 5775 5776 5777 5778 5778 5779 5779 5779 5781 5783 5784 5786 5787 5788 5789 5790 5791 5791 5792 5792 5791 5791 5791 5790 5790 5789 5788 5788 5787 5786 5785 5784 5783 5781 5780 5779 5778 5776 5775 5773 5772 5770 5769 5767